Location: ????????
(60.4333°N, 46.4710°E)
Time: 04:39:18
(UTC+00:00)

Cosmos 2219 Rocket - Pass Details

Date: 25 November 2020
Orbit: 829 x 845 km, 71.0° (Epoch: 19 January)

Event Time Altitude Azimuth Distance (km) Brightness Sun altitude
Rises 15:39:16 0° 247° (WSW) 3,393 6.4 -25.2°
Reaches altitude 10° 15:41:49 10° 253° (WSW) 2,458 5.5 -25.5°
Maximum altitude 15:47:14 46° 327° (NNW) 1,112 3.0 -26.2°
Enters shadow 15:49:08 34° 14° (NNE) 1,351 3.1 -26.4°
